Time,TemperatureF,DewpointF,PressureIn,WindDirection,WindDirectionDegrees,WindSpeedMPH,WindSpeedGustMPH,Humidity,HourlyPrecipIn,Conditions,Clouds,dailyrainin,SoftwareType,DateUTC
2013-03-07 00:00:00,31.0,29.5,30.11,NNE,17,0.0,3.0,94,0.00,-SN,,0.00,WeatherDisplay:10.37,2013-03-07 05:00:00,
2013-03-07 00:05:00,31.1,29.5,30.11,NNE,31,2.0,6.0,94,0.00,-RA,,0.00,WeatherDisplay:10.37,2013-03-07 05:05:00,
2013-03-07 00:10:00,31.1,29.6,30.11,NE,43,0.0,4.0,94,0.00,-RA,,0.00,WeatherDisplay:10.37,2013-03-07 05:10:00,
2013-03-07 00:15:00,31.1,29.5,30.12,NE,41,2.0,3.0,94,0.00,-RA,,0.00,WeatherDisplay:10.37,2013-03-07 05:15:00,
2013-03-07 00:20:00,31.0,29.5,30.12,NNE,26,0.0,4.0,94,0.00,-RA,,0.00,WeatherDisplay:10.37,2013-03-07 05:20:00,
2013-03-07 00:25:00,31.1,29.5,30.11,NE,35,3.0,5.0,94,0.00,-RA,,0.00,WeatherDisplay:10.37,2013-03-07 05:25:00,
2013-03-07 00:30:00,31.1,29.6,30.11,NE,34,1.0,5.0,94,0.00,-RA,,0.00,WeatherDisplay:10.37,2013-03-07 05:30:00,
2013-03-07 00:35:00,31.1,29.6,30.11,NE,34,2.0,7.0,94,0.00,-RA,,0.00,WeatherDisplay:10.37,2013-03-07 05:35:00,
2013-03-07 00:40:00,31.1,29.3,30.11,NE,43,2.0,6.0,93,0.00,-RA,,0.00,WeatherDisplay:10.37,2013-03-07 05:40:00,
2013-03-07 00:45:00,31.2,29.7,30.11,NE,45,2.0,4.0,94,0.00,-RA,,0.00,WeatherDisplay:10.37,2013-03-07 05:45:00,
2013-03-07 00:50:00,31.2,29.4,30.11,NNE,33,1.0,4.0,93,0.00,-RA,,0.00,WeatherDisplay:10.37,2013-03-07 05:50:00,
2013-03-07 00:55:00,31.2,29.4,30.12,NNE,15,0.0,5.0,93,0.00,-RA,,0.00,WeatherDisplay:10.37,2013-03-07 05:55:00,
2013-03-07 01:00:00,31.2,29.4,30.12,NNE,14,1.0,6.0,93,0.00,-RA,,0.00,WeatherDisplay:10.37,2013-03-07 06:00:00,
2013-03-07 01:10:00,31.2,29.4,30.11,NNE,27,2.0,4.0,93,0.00,-SN,,0.00,WeatherDisplay:10.37,2013-03-07 06:10:00,
2013-03-07 01:15:00,31.2,29.4,30.11,NNE,32,1.0,8.0,93,0.00,-SN,,0.00,WeatherDisplay:10.37,2013-03-07 06:15:00,
2013-03-07 01:20:00,31.2,29.4,30.11,NNE,18,3.0,8.0,93,0.00,-SN,,0.00,WeatherDisplay:10.37,2013-03-07 06:20:00,
2013-03-07 01:25:00,31.2,29.4,30.11,North,8,0.0,4.0,93,0.00,-SN,,0.00,WeatherDisplay:10.37,2013-03-07 06:25:00,
2013-03-07 01:30:00,31.2,29.1,30.10,North,11,1.0,5.0,92,0.00,-SN,,0.00,WeatherDisplay:10.37,2013-03-07 06:30:00,
2013-03-07 01:35:00,31.2,29.1,30.10,NNE,13,3.0,8.0,92,0.00,-SN,,0.00,WeatherDisplay:10.37,2013-03-07 06:35:00,
2013-03-07 01:40:00,31.2,29.1,30.09,NNE,20,0.0,6.0,92,0.00,-SN,,0.00,WeatherDisplay:10.37,2013-03-07 06:40:00,
2013-03-07 01:45:00,31.1,29.0,30.09,NE,34,3.0,9.0,92,0.00,-SN,,0.00,WeatherDisplay:10.37,2013-03-07 06:45:00,
2013-03-07 01:50:00,31.1,29.0,30.09,NNE,22,2.0,7.0,92,0.00,-SN,,0.00,WeatherDisplay:10.37,2013-03-07 06:50:00,
2013-03-07 01:55:00,31.1,29.0,30.09,NNE,12,2.0,5.0,92,0.00,-SN,,0.00,WeatherDisplay:10.37,2013-03-07 06:55:00,
2013-03-07 02:00:00,31.1,29.0,30.08,NNE,14,2.0,9.0,92,0.00,-SN,,0.00,WeatherDisplay:10.37,2013-03-07 07:00:00,
2013-03-07 02:05:00,31.1,29.0,30.08,North,7,3.0,10.0,92,0.00,-SN,,0.00,WeatherDisplay:10.37,2013-03-07 07:05:00,
2013-03-07 02:10:00,31.1,29.0,30.08,North,4,3.0,10.0,92,0.00,-SN,,0.00,WeatherDisplay:10.37,2013-03-07 07:10:00,
2013-03-07 02:15:00,31.1,29.0,30.08,North,9,2.0,5.0,92,0.00,-SN,,0.00,WeatherDisplay:10.37,2013-03-07 07:15:00,
2013-03-07 02:20:00,31.1,28.8,30.08,NE,34,2.0,7.0,91,0.00,-SN,,0.00,WeatherDisplay:10.37,2013-03-07 07:20:00,
2013-03-07 02:25:00,31.1,28.8,30.08,NNE,27,2.0,5.0,91,0.00,-SN,,0.00,WeatherDisplay:10.37,2013-03-07 07:25:00,
2013-03-07 02:30:00,31.1,28.8,30.08,North,7,2.0,6.0,91,0.00,-SN,,0.00,WeatherDisplay:10.37,2013-03-07 07:30:00,
2013-03-07 02:35:00,31.1,28.8,30.08,NNE,12,2.0,8.0,91,0.00,-SN,,0.00,WeatherDisplay:10.37,2013-03-07 07:35:00,
2013-03-07 02:40:00,31.1,28.8,30.07,North,4,2.0,9.0,91,0.00,-SN,,0.00,WeatherDisplay:10.37,2013-03-07 07:40:00,
2013-03-07 02:45:00,31.1,28.8,30.07,North,357,2.0,12.0,91,0.00,-SN,,0.00,WeatherDisplay:10.37,2013-03-07 07:45:00,
2013-03-07 02:55:00,31.2,28.9,30.07,NNE,25,3.0,6.0,91,0.00,-SN,,0.00,WeatherDisplay:10.37,2013-03-07 07:55:00,
2013-03-07 03:00:00,31.2,28.6,30.07,NNE,33,2.0,5.0,90,0.00,-SN,,0.00,WeatherDisplay:10.37,2013-03-07 08:00:00,
2013-03-07 03:05:00,31.2,28.6,30.07,NNE,20,3.0,12.0,90,0.00,-SN,,0.00,WeatherDisplay:10.37,2013-03-07 08:05:00,
2013-03-07 03:10:00,31.2,28.6,30.07,North,6,5.0,9.0,90,0.00,-SN,,0.00,WeatherDisplay:10.37,2013-03-07 08:10:00,
2013-03-07 03:15:00,31.2,28.6,30.07,North,8,1.0,9.0,90,0.00,-SN,,0.00,WeatherDisplay:10.37,2013-03-07 08:15:00,
2013-03-07 03:20:00,31.2,28.6,30.07,NNE,27,2.0,10.0,90,0.00,OVC,,0.00,WeatherDisplay:10.37,2013-03-07 08:20:00,
2013-03-07 03:25:00,31.2,28.6,30.07,NNE,21,2.0,8.0,90,0.00,OVC,,0.00,WeatherDisplay:10.37,2013-03-07 08:25:00,
2013-03-07 03:30:00,31.2,28.3,30.07,NNE,17,3.0,9.0,89,0.00,OVC,,0.00,WeatherDisplay:10.37,2013-03-07 08:30:00,
2013-03-07 03:40:00,31.1,28.2,30.07,NNE,22,2.0,6.0,89,0.00,OVC,,0.00,WeatherDisplay:10.37,2013-03-07 08:40:00,
2013-03-07 03:45:00,31.1,28.2,30.07,North,5,3.0,7.0,89,0.00,OVC,,0.00,WeatherDisplay:10.37,2013-03-07 08:45:00,
2013-03-07 03:50:00,31.1,28.2,30.07,North,7,2.0,7.0,89,0.00,OVC,,0.00,WeatherDisplay:10.37,2013-03-07 08:50:00,
2013-03-07 03:55:00,31.1,28.2,30.07,North,11,2.0,7.0,89,0.00,OVC,,0.00,WeatherDisplay:10.37,2013-03-07 08:55:00,
2013-03-07 04:00:00,31.1,28.2,30.07,North,8,3.0,8.0,89,0.00,OVC,,0.00,WeatherDisplay:10.37,2013-03-07 09:00:00,
2013-03-07 04:05:00,31.1,28.2,30.07,NNE,13,2.0,9.0,89,0.00,OVC,,0.00,WeatherDisplay:10.37,2013-03-07 09:05:00,
2013-03-07 04:10:00,31.1,28.0,30.07,NNE,19,2.0,5.0,88,0.00,OVC,,0.00,WeatherDisplay:10.37,2013-03-07 09:10:00,
2013-03-07 04:20:00,31.1,28.0,30.07,North,7,2.0,8.0,88,0.00,OVC,,0.00,WeatherDisplay:10.37,2013-03-07 09:20:00,
2013-03-07 04:35:00,31.1,28.0,30.07,North,11,3.0,6.0,88,0.00,OVC,,0.00,WeatherDisplay:10.37,2013-03-07 09:35:00,
2013-03-07 04:40:00,31.1,28.0,30.07,North,352,5.0,12.0,88,0.00,OVC,,0.00,WeatherDisplay:10.37,2013-03-07 09:40:00,
2013-03-07 04:45:00,31.1,28.0,30.08,NNE,13,3.0,9.0,88,0.00,OVC,,0.00,WeatherDisplay:10.37,2013-03-07 09:45:00,
2013-03-07 04:50:00,31.1,28.0,30.07,NNE,21,2.0,7.0,88,0.00,OVC,,0.00,WeatherDisplay:10.37,2013-03-07 09:50:00,
2013-03-07 04:55:00,31.0,27.9,30.07,North,8,3.0,9.0,88,0.00,OVC,,0.00,WeatherDisplay:10.37,2013-03-07 09:55:00,
2013-03-07 05:00:00,31.0,27.9,30.08,NNE,17,3.0,9.0,88,0.00,OVC,,0.00,WeatherDisplay:10.37,2013-03-07 10:00:00,
2013-03-07 05:05:00,31.0,27.8,30.07,NNE,21,2.0,7.0,88,0.00,OVC,,0.00,WeatherDisplay:10.37,2013-03-07 10:05:00,
2013-03-07 05:15:00,30.8,27.9,30.07,North,359,5.0,16.0,89,0.00,OVC,,0.00,WeatherDisplay:10.37,2013-03-07 10:15:00,
2013-03-07 05:20:00,30.6,27.8,30.07,North,359,5.0,9.0,89,0.00,OVC,,0.00,WeatherDisplay:10.37,2013-03-07 10:20:00,
2013-03-07 05:25:00,30.6,27.7,30.06,North,11,3.0,8.0,89,0.00,OVC,,0.00,WeatherDisplay:10.37,2013-03-07 10:25:00,
2013-03-07 05:35:00,30.6,27.5,30.06,NNE,21,2.0,9.0,88,0.00,OVC,,0.00,WeatherDisplay:10.37,2013-03-07 10:35:00,
2013-03-07 05:40:00,30.7,27.3,30.06,North,6,5.0,8.0,87,0.00,OVC,,0.00,WeatherDisplay:10.37,2013-03-07 10:40:00,
2013-03-07 05:45:00,30.8,27.1,30.07,North,358,3.0,8.0,86,0.00,OVC,,0.00,WeatherDisplay:10.37,2013-03-07 10:45:00,
2013-03-07 05:55:00,30.9,27.2,30.07,NE,36,5.0,7.0,86,0.00,OVC,,0.00,WeatherDisplay:10.37,2013-03-07 10:55:00,
2013-03-07 06:00:00,30.9,26.9,30.07,NNE,32,6.0,12.0,85,0.00,OVC,,0.00,WeatherDisplay:10.37,2013-03-07 11:00:00,
2013-03-07 06:05:00,31.0,27.0,30.07,NNE,32,2.0,6.0,85,0.00,OVC,,0.00,WeatherDisplay:10.37,2013-03-07 11:05:00,
2013-03-07 06:10:00,31.0,27.0,30.07,NNE,18,5.0,10.0,85,0.00,OVC,,0.00,WeatherDisplay:10.37,2013-03-07 11:10:00,
2013-03-07 06:15:00,31.0,26.7,30.07,NNE,21,5.0,10.0,84,0.00,OVC,,0.00,WeatherDisplay:10.37,2013-03-07 11:15:00,
2013-03-07 06:20:00,31.1,27.1,30.07,NNE,26,3.0,8.0,85,0.00,OVC,,0.00,WeatherDisplay:10.37,2013-03-07 11:20:00,
2013-03-07 06:25:00,31.1,26.8,30.07,NNE,24,5.0,12.0,84,0.00,OVC,,0.00,WeatherDisplay:10.37,2013-03-07 11:25:00,
2013-03-07 06:30:00,31.1,26.5,30.07,NNE,25,6.0,12.0,83,0.00,OVC,,0.00,WeatherDisplay:10.37,2013-03-07 11:30:00,
2013-03-07 06:40:00,31.1,26.8,30.07,NNE,15,2.0,8.0,84,0.00,OVC,,0.00,WeatherDisplay:10.37,2013-03-07 11:40:00,
2013-03-07 06:45:00,31.1,26.8,30.08,NNE,15,5.0,16.0,84,0.00,OVC,,0.00,WeatherDisplay:10.37,2013-03-07 11:45:00,
2013-03-07 06:50:00,31.1,26.5,30.08,NNE,15,5.0,12.0,83,0.00,OVC,,0.00,WeatherDisplay:10.37,2013-03-07 11:50:00,
2013-03-07 07:00:00,31.2,26.3,30.07,NNE,23,5.0,12.0,82,0.00,OVC,,0.00,WeatherDisplay:10.37,2013-03-07 12:00:00,
2013-03-07 07:05:00,31.2,26.6,30.08,NNE,21,3.0,12.0,83,0.00,OVC,,0.00,WeatherDisplay:10.37,2013-03-07 12:05:00,
2013-03-07 07:10:00,31.2,26.7,30.08,NNE,26,5.0,10.0,83,0.00,OVC,,0.00,WeatherDisplay:10.37,2013-03-07 12:10:00,
2013-03-07 07:15:00,31.3,26.7,30.08,NNE,30,3.0,12.0,83,0.00,OVC,,0.00,WeatherDisplay:10.37,2013-03-07 12:15:00,
2013-03-07 07:20:00,31.3,26.8,30.07,NNE,25,5.0,8.0,83,0.00,OVC,,0.00,WeatherDisplay:10.37,2013-03-07 12:20:00,
2013-03-07 07:25:00,31.4,26.5,30.07,North,11,8.0,13.0,82,0.00,OVC,,0.00,WeatherDisplay:10.37,2013-03-07 12:25:00,
2013-03-07 07:35:00,31.6,26.7,30.07,North,10,7.0,12.0,82,0.00,OVC,,0.00,WeatherDisplay:10.37,2013-03-07 12:35:00,
2013-03-07 07:40:00,31.6,27.0,30.08,NNE,20,3.0,7.0,83,0.00,OVC,,0.00,WeatherDisplay:10.37,2013-03-07 12:40:00,
2013-03-07 07:45:00,31.7,26.8,30.08,NNE,20,5.0,8.0,82,0.00,OVC,,0.00,WeatherDisplay:10.37,2013-03-07 12:45:00,
2013-03-07 07:50:00,31.8,26.9,30.08,North,11,5.0,12.0,82,0.00,OVC,,0.00,WeatherDisplay:10.37,2013-03-07 12:50:00,
2013-03-07 07:55:00,31.8,26.9,30.08,NNE,18,3.0,8.0,82,0.00,OVC,,0.00,WeatherDisplay:10.37,2013-03-07 12:55:00,
2013-03-07 08:00:00,31.9,27.3,30.08,NNE,26,2.0,12.0,83,0.00,OVC,,0.00,WeatherDisplay:10.37,2013-03-07 13:00:00,
2013-03-07 08:05:00,31.9,27.3,30.08,NNE,28,5.0,8.0,83,0.00,OVC,,0.00,WeatherDisplay:10.37,2013-03-07 13:05:00,
2013-03-07 08:10:00,32.0,27.1,30.08,NNE,16,2.0,10.0,82,0.00,OVC,,0.00,WeatherDisplay:10.37,2013-03-07 13:10:00,
2013-03-07 08:15:00,32.0,27.1,30.08,North,8,3.0,7.0,82,0.00,OVC,,0.00,WeatherDisplay:10.37,2013-03-07 13:15:00,
2013-03-07 08:20:00,32.1,27.5,30.08,NNE,27,5.0,7.0,83,0.00,OVC,,0.00,WeatherDisplay:10.37,2013-03-07 13:20:00,
2013-03-07 08:25:00,32.1,27.5,30.08,NNE,22,3.0,9.0,83,0.00,OVC,,0.00,WeatherDisplay:10.37,2013-03-07 13:25:00,
2013-03-07 08:30:00,32.2,27.6,30.08,North,10,5.0,7.0,83,0.00,OVC,,0.00,WeatherDisplay:10.37,2013-03-07 13:30:00,
2013-03-07 08:35:00,32.2,27.9,30.08,NNE,19,2.0,10.0,84,0.00,OVC,,0.00,WeatherDisplay:10.37,2013-03-07 13:35:00,
2013-03-07 08:40:00,32.2,27.9,30.08,NNE,24,3.0,8.0,84,0.00,OVC,,0.00,WeatherDisplay:10.37,2013-03-07 13:40:00,
2013-03-07 08:45:00,32.2,27.9,30.08,NNE,31,5.0,10.0,84,0.00,OVC,,0.00,WeatherDisplay:10.37,2013-03-07 13:45:00,
2013-03-07 08:55:00,32.4,28.1,30.08,NNE,27,3.0,8.0,84,0.00,OVC,,0.00,WeatherDisplay:10.37,2013-03-07 13:55:00,
2013-03-07 09:00:00,32.4,28.1,30.08,NNE,21,3.0,9.0,84,0.00,OVC,,0.00,WeatherDisplay:10.37,2013-03-07 14:00:00,
2013-03-07 09:05:00,32.4,28.2,30.08,NNE,25,2.0,8.0,84,0.00,-SN,,0.00,WeatherDisplay:10.37,2013-03-07 14:05:00,
2013-03-07 09:10:00,32.5,28.2,30.08,NNE,27,6.0,10.0,84,0.00,-SN,,0.00,WeatherDisplay:10.37,2013-03-07 14:10:00,
2013-03-07 09:15:00,32.5,27.9,30.08,NNE,27,7.0,17.0,83,0.00,-SN,,0.00,WeatherDisplay:10.37,2013-03-07 14:15:00,
2013-03-07 09:20:00,32.5,27.9,30.08,NNE,26,1.0,8.0,83,0.00,-SN,,0.00,WeatherDisplay:10.37,2013-03-07 14:20:00,
2013-03-07 09:25:00,32.6,28.0,30.08,NNE,26,6.0,10.0,83,0.00,-SN,,0.00,WeatherDisplay:10.37,2013-03-07 14:25:00,
2013-03-07 09:30:00,32.7,27.8,30.07,NE,38,6.0,15.0,82,0.00,-SN,,0.00,WeatherDisplay:10.37,2013-03-07 14:30:00,
2013-03-07 09:35:00,32.8,27.6,30.07,NNE,31,5.0,12.0,81,0.00,-SN,,0.00,WeatherDisplay:10.37,2013-03-07 14:35:00,
2013-03-07 09:40:00,32.9,28.0,30.07,NE,37,1.0,8.0,82,0.00,-SN,,0.00,WeatherDisplay:10.37,2013-03-07 14:40:00,
2013-03-07 09:45:00,33.1,27.9,30.07,NE,40,5.0,12.0,81,0.00,-SN,,0.00,WeatherDisplay:10.37,2013-03-07 14:45:00,
2013-03-07 09:50:00,33.3,28.4,30.07,NNE,29,3.0,10.0,82,0.00,-SN,,0.00,WeatherDisplay:10.37,2013-03-07 14:50:00,
2013-03-07 09:55:00,33.4,27.9,30.07,NNE,26,6.0,10.0,80,0.00,-SN,,0.00,WeatherDisplay:10.37,2013-03-07 14:55:00,
2013-03-07 10:00:00,33.7,28.2,30.07,NNE,21,6.0,12.0,80,0.00,-SN,,0.00,WeatherDisplay:10.37,2013-03-07 15:00:00,
2013-03-07 10:05:00,33.8,28.3,30.06,NNE,30,5.0,12.0,80,0.00,-SN,,0.00,WeatherDisplay:10.37,2013-03-07 15:05:00,
2013-03-07 10:10:00,34.0,28.5,30.06,NNE,18,5.0,12.0,80,0.00,-SN,,0.00,WeatherDisplay:10.37,2013-03-07 15:10:00,
2013-03-07 10:15:00,34.2,28.4,30.07,NNE,16,7.0,14.0,79,0.00,-SN,,0.00,WeatherDisplay:10.37,2013-03-07 15:15:00,
2013-03-07 10:20:00,34.1,28.6,30.07,NNE,15,5.0,15.0,80,0.00,OVC,,0.00,WeatherDisplay:10.37,2013-03-07 15:20:00,
2013-03-07 10:25:00,34.0,28.5,30.07,NNE,21,5.0,12.0,80,0.00,OVC,,0.00,WeatherDisplay:10.37,2013-03-07 15:25:00,
2013-03-07 10:30:00,34.0,28.8,30.06,NNE,30,2.0,9.0,81,0.00,OVC,,0.00,WeatherDisplay:10.37,2013-03-07 15:30:00,
2013-03-07 10:35:00,34.1,28.9,30.07,NNE,28,7.0,10.0,81,0.00,OVC,,0.00,WeatherDisplay:10.37,2013-03-07 15:35:00,
2013-03-07 10:40:00,34.0,28.8,30.07,NNE,32,6.0,12.0,81,0.00,OVC,,0.00,WeatherDisplay:10.37,2013-03-07 15:40:00,
2013-03-07 10:45:00,34.0,29.1,30.07,NNE,30,3.0,14.0,82,0.00,OVC,,0.00,WeatherDisplay:10.37,2013-03-07 15:45:00,
2013-03-07 10:50:00,34.0,29.1,30.07,NNE,32,9.0,17.0,82,0.00,OVC,,0.00,WeatherDisplay:10.37,2013-03-07 15:50:00,
2013-03-07 10:55:00,33.9,29.0,30.07,NE,47,5.0,16.0,82,0.00,OVC,,0.00,WeatherDisplay:10.37,2013-03-07 15:55:00,
2013-03-07 11:00:00,34.1,29.5,30.07,NE,37,3.0,8.0,83,0.00,OVC,,0.00,WeatherDisplay:10.37,2013-03-07 16:00:00,
2013-03-07 11:05:00,34.1,29.2,30.07,NNE,24,6.0,12.0,82,0.00,-SN,,0.00,WeatherDisplay:10.37,2013-03-07 16:05:00,
2013-03-07 11:10:00,34.1,29.5,30.07,NNE,21,5.0,14.0,83,0.00,-SN,,0.00,WeatherDisplay:10.37,2013-03-07 16:10:00,
2013-03-07 11:15:00,34.1,29.8,30.07,NNE,24,5.0,12.0,84,0.01,-SN,,0.01,WeatherDisplay:10.37,2013-03-07 16:15:00,
2013-03-07 11:20:00,34.0,29.4,30.07,NNE,27,6.0,13.0,83,0.00,-SN,,0.01,WeatherDisplay:10.37,2013-03-07 16:20:00,
2013-03-07 11:25:00,34.1,29.8,30.07,NNE,19,3.0,8.0,84,0.00,-SN,,0.01,WeatherDisplay:10.37,2013-03-07 16:25:00,
2013-03-07 11:30:00,34.1,29.8,30.07,NNE,20,3.0,13.0,84,0.00,-SN,,0.01,WeatherDisplay:10.37,2013-03-07 16:30:00,
2013-03-07 11:35:00,34.0,29.7,30.07,NNE,27,3.0,9.0,84,0.00,-SN,,0.01,WeatherDisplay:10.37,2013-03-07 16:35:00,
2013-03-07 11:40:00,33.9,29.6,30.07,NNE,25,7.0,17.0,84,0.00,-SN,,0.01,WeatherDisplay:10.37,2013-03-07 16:40:00,
2013-03-07 11:45:00,33.8,29.8,30.07,NNE,28,5.0,12.0,85,0.00,-SN,,0.01,WeatherDisplay:10.37,2013-03-07 16:45:00,
2013-03-07 11:50:00,33.7,30.0,30.07,NNE,27,3.0,7.0,86,0.01,-SN,,0.02,WeatherDisplay:10.37,2013-03-07 16:50:00,
2013-03-07 11:55:00,33.7,29.7,30.07,NNE,25,3.0,12.0,85,0.00,-SN,,0.02,WeatherDisplay:10.37,2013-03-07 16:55:00,
2013-03-07 12:00:00,33.6,29.9,30.07,NNE,18,5.0,9.0,86,0.00,-SN,,0.02,WeatherDisplay:10.37,2013-03-07 17:00:00,
2013-03-07 12:05:00,33.6,29.8,30.07,NNE,12,6.0,13.0,86,0.00,-SN,,0.02,WeatherDisplay:10.37,2013-03-07 17:05:00,
2013-03-07 12:10:00,33.6,29.9,30.07,NNE,31,5.0,10.0,86,0.00,-SN,,0.02,WeatherDisplay:10.37,2013-03-07 17:10:00,
2013-03-07 12:15:00,33.6,29.9,30.07,NNE,32,5.0,12.0,86,0.00,-SN,,0.02,WeatherDisplay:10.37,2013-03-07 17:15:00,
2013-03-07 12:20:00,33.5,30.0,30.07,NNE,21,6.0,13.0,87,0.00,-SN,,0.02,WeatherDisplay:10.37,2013-03-07 17:20:00,
2013-03-07 12:25:00,33.4,30.2,30.06,NNE,27,3.0,9.0,88,0.00,-SN,,0.02,WeatherDisplay:10.37,2013-03-07 17:25:00,
2013-03-07 12:30:00,33.4,30.2,30.06,North,10,3.0,9.0,88,0.01,-SN,,0.03,WeatherDisplay:10.37,2013-03-07 17:30:00,
2013-03-07 12:35:00,33.5,30.6,30.06,NNE,12,3.0,9.0,89,0.00,-SN,,0.03,WeatherDisplay:10.37,2013-03-07 17:35:00,
2013-03-07 12:40:00,33.7,30.6,30.06,NNE,24,5.0,9.0,88,0.00,-SN,,0.03,WeatherDisplay:10.37,2013-03-07 17:40:00,
2013-03-07 12:45:00,33.9,30.5,30.06,NNE,12,3.0,8.0,87,0.00,-SN,,0.03,WeatherDisplay:10.37,2013-03-07 17:45:00,
2013-03-07 12:50:00,34.2,30.7,30.06,North,0,2.0,7.0,87,0.01,-SN,,0.04,WeatherDisplay:10.37,2013-03-07 17:50:00,
2013-03-07 12:55:00,34.4,30.7,30.06,North,350,5.0,9.0,86,0.00,-SN,,0.04,WeatherDisplay:10.37,2013-03-07 17:55:00,
2013-03-07 13:00:00,34.5,30.5,30.05,North,5,3.0,9.0,85,0.00,-SN,,0.04,WeatherDisplay:10.37,2013-03-07 18:00:00,
2013-03-07 13:05:00,34.6,30.6,30.05,NNE,19,3.0,8.0,85,0.00,-SN,,0.04,WeatherDisplay:10.37,2013-03-07 18:05:00,
2013-03-07 13:10:00,34.6,30.6,30.05,NNE,17,2.0,9.0,85,0.00,-SN,,0.04,WeatherDisplay:10.37,2013-03-07 18:10:00,
2013-03-07 13:15:00,34.7,30.7,30.05,North,3,3.0,8.0,85,0.00,-SN,,0.04,WeatherDisplay:10.37,2013-03-07 18:15:00,
2013-03-07 13:20:00,34.7,30.4,30.06,North,349,3.0,12.0,84,0.00,-SN,,0.04,WeatherDisplay:10.37,2013-03-07 18:20:00,
2013-03-07 13:30:00,34.6,30.3,30.05,NNE,12,3.0,8.0,84,0.00,-SN,,0.04,WeatherDisplay:10.37,2013-03-07 18:30:00,
2013-03-07 13:35:00,34.6,30.6,30.05,NNE,20,3.0,7.0,85,0.01,-SN,,0.05,WeatherDisplay:10.37,2013-03-07 18:35:00,
2013-03-07 13:40:00,34.6,30.6,30.05,NNE,20,1.0,8.0,85,0.00,-SN,,0.05,WeatherDisplay:10.37,2013-03-07 18:40:00,
2013-03-07 13:45:00,34.6,30.6,30.05,NNE,21,3.0,8.0,85,0.00,-SN,,0.05,WeatherDisplay:10.37,2013-03-07 18:45:00,
2013-03-07 13:55:00,34.4,30.6,30.05,North,6,2.0,6.0,86,0.00,-SN,,0.05,WeatherDisplay:10.37,2013-03-07 18:55:00,
2013-03-07 14:00:00,34.4,30.6,30.05,North,11,2.0,8.0,86,0.00,-SN,,0.05,WeatherDisplay:10.37,2013-03-07 19:00:00,
2013-03-07 14:05:00,34.3,30.3,30.05,North,10,2.0,8.0,85,0.00,-SN,,0.05,WeatherDisplay:10.37,2013-03-07 19:05:00,
2013-03-07 14:10:00,34.3,30.3,30.05,North,10,2.0,10.0,85,0.00,-SN,,0.05,WeatherDisplay:10.37,2013-03-07 19:10:00,
2013-03-07 14:15:00,34.3,30.5,30.05,NNE,28,3.0,9.0,86,0.00,-SN,,0.05,WeatherDisplay:10.37,2013-03-07 19:15:00,
2013-03-07 14:20:00,34.2,30.4,30.05,NNE,25,6.0,12.0,86,0.01,-SN,,0.06,WeatherDisplay:10.37,2013-03-07 19:20:00,
2013-03-07 14:25:00,34.0,30.5,30.05,NNE,18,2.0,9.0,87,0.00,-SN,,0.06,WeatherDisplay:10.37,2013-03-07 19:25:00,
2013-03-07 14:30:00,33.8,30.6,30.05,North,8,1.0,8.0,88,0.00,-SN,,0.06,WeatherDisplay:10.37,2013-03-07 19:30:00,
2013-03-07 14:45:00,33.6,31.0,30.05,NNE,29,1.0,8.0,90,0.00,-SN,,0.06,WeatherDisplay:10.37,2013-03-07 19:45:00,
2013-03-07 14:50:00,33.5,30.9,30.06,NNE,30,2.0,9.0,90,0.00,-SN,,0.06,WeatherDisplay:10.37,2013-03-07 19:50:00,
2013-03-07 14:55:00,33.5,30.9,30.06,NNE,20,2.0,8.0,90,0.00,-SN,,0.06,WeatherDisplay:10.37,2013-03-07 19:55:00,
2013-03-07 15:00:00,33.4,30.8,30.06,North,8,5.0,10.0,90,0.00,-SN,,0.06,WeatherDisplay:10.37,2013-03-07 20:00:00,
2013-03-07 15:05:00,33.3,30.7,30.06,NNE,17,5.0,12.0,90,0.01,-SN,,0.07,WeatherDisplay:10.37,2013-03-07 20:05:00,
2013-03-07 15:10:00,33.1,30.5,30.06,NNE,19,2.0,6.0,90,0.00,-SN,,0.07,WeatherDisplay:10.37,2013-03-07 20:10:00,
2013-03-07 15:15:00,33.0,30.7,30.06,North,7,1.0,5.0,91,0.00,-SN,,0.07,WeatherDisplay:10.37,2013-03-07 20:15:00,
2013-03-07 15:25:00,32.8,30.5,30.06,North,1,3.0,8.0,91,0.00,-SN,,0.07,WeatherDisplay:10.37,2013-03-07 20:25:00,
2013-03-07 15:30:00,32.7,30.4,30.06,North,4,2.0,6.0,91,0.00,-SN,,0.07,WeatherDisplay:10.37,2013-03-07 20:30:00,
2013-03-07 15:35:00,32.6,30.5,30.06,North,2,2.0,6.0,92,0.00,-SN,,0.07,WeatherDisplay:10.37,2013-03-07 20:35:00,
2013-03-07 15:40:00,32.5,30.5,30.05,North,359,3.0,10.0,92,0.00,-SN,,0.07,WeatherDisplay:10.37,2013-03-07 20:40:00,
2013-03-07 15:45:00,32.4,30.3,30.06,North,358,2.0,13.0,92,0.00,-SN,,0.07,WeatherDisplay:10.37,2013-03-07 20:45:00,
2013-03-07 15:50:00,32.3,30.2,30.05,North,5,1.0,8.0,92,0.00,-SN,,0.07,WeatherDisplay:10.37,2013-03-07 20:50:00,
2013-03-07 16:00:00,32.0,30.2,30.05,North,359,2.0,8.0,93,0.00,-SN,,0.07,WeatherDisplay:10.37,2013-03-07 21:00:00,
2013-03-07 16:05:00,31.9,30.1,30.06,North,358,1.0,7.0,93,0.00,-SN,,0.07,WeatherDisplay:10.37,2013-03-07 21:05:00,
2013-03-07 16:10:00,31.7,29.9,30.05,North,5,0.0,5.0,93,0.00,-SN,,0.07,WeatherDisplay:10.37,2013-03-07 21:10:00,
2013-03-07 16:20:00,31.6,29.8,30.06,North,351,1.0,6.0,93,0.00,-SN,,0.07,WeatherDisplay:10.37,2013-03-07 21:20:00,
2013-03-07 16:25:00,31.6,30.1,30.06,North,354,1.0,5.0,94,0.00,-SN,,0.07,WeatherDisplay:10.37,2013-03-07 21:25:00,
2013-03-07 16:35:00,31.6,30.1,30.06,NNE,27,1.0,6.0,94,0.00,OVC,,0.07,WeatherDisplay:10.37,2013-03-07 21:35:00,
2013-03-07 16:40:00,31.6,30.0,30.06,NNE,27,0.0,4.0,94,0.00,OVC,,0.07,WeatherDisplay:10.37,2013-03-07 21:40:00,
2013-03-07 16:45:00,31.5,30.0,30.06,North,3,0.0,4.0,94,0.00,OVC,,0.07,WeatherDisplay:10.37,2013-03-07 21:45:00,
2013-03-07 16:55:00,31.4,29.9,30.06,NNW,342,0.0,6.0,94,0.00,OVC,,0.07,WeatherDisplay:10.37,2013-03-07 21:55:00,
2013-03-07 17:00:00,31.3,29.8,30.06,North,5,2.0,7.0,94,0.00,OVC,,0.07,WeatherDisplay:10.37,2013-03-07 22:00:00,
2013-03-07 17:05:00,31.2,29.7,30.06,North,8,1.0,8.0,94,0.00,OVC,,0.07,WeatherDisplay:10.37,2013-03-07 22:05:00,
2013-03-07 17:15:00,31.1,29.3,30.06,North,354,2.0,7.0,93,0.00,OVC,,0.07,WeatherDisplay:10.37,2013-03-07 22:15:00,
2013-03-07 17:20:00,31.1,29.6,30.07,North,1,1.0,4.0,94,0.00,OVC,,0.07,WeatherDisplay:10.37,2013-03-07 22:20:00,
2013-03-07 17:25:00,31.1,29.6,30.07,North,8,0.0,4.0,94,0.00,OVC,,0.07,WeatherDisplay:10.37,2013-03-07 22:25:00,
2013-03-07 17:30:00,31.0,29.5,30.07,North,11,3.0,10.0,94,0.00,OVC,,0.07,WeatherDisplay:10.37,2013-03-07 22:30:00,
2013-03-07 17:35:00,31.0,29.5,30.07,North,358,3.0,5.0,94,0.00,OVC,,0.07,WeatherDisplay:10.37,2013-03-07 22:35:00,
2013-03-07 17:40:00,31.0,29.5,30.06,NNW,347,2.0,6.0,94,0.00,OVC,,0.07,WeatherDisplay:10.37,2013-03-07 22:40:00,
2013-03-07 17:45:00,30.9,29.4,30.07,North,4,0.0,6.0,94,0.00,OVC,,0.07,WeatherDisplay:10.37,2013-03-07 22:45:00,
2013-03-07 17:55:00,30.8,29.3,30.07,North,359,3.0,9.0,94,0.00,OVC,,0.07,WeatherDisplay:10.37,2013-03-07 22:55:00,
2013-03-07 18:00:00,30.8,29.3,30.07,North,350,2.0,6.0,94,0.00,OVC,,0.07,WeatherDisplay:10.37,2013-03-07 23:00:00,
2013-03-07 18:05:00,30.8,29.3,30.07,NNW,348,2.0,5.0,94,0.00,OVC,,0.07,WeatherDisplay:10.37,2013-03-07 23:05:00,
2013-03-07 18:15:00,30.8,29.3,30.07,NNW,346,3.0,6.0,94,0.00,OVC,,0.07,WeatherDisplay:10.37,2013-03-07 23:15:00,
2013-03-07 18:20:00,30.8,29.3,30.07,North,360,1.0,8.0,94,0.00,OVC,,0.07,WeatherDisplay:10.37,2013-03-07 23:20:00,
2013-03-07 18:30:00,30.8,29.0,30.07,North,349,0.0,4.0,93,0.00,OVC,,0.07,WeatherDisplay:10.37,2013-03-07 23:30:00,
2013-03-07 18:35:00,30.8,29.0,30.06,NNW,342,1.0,6.0,93,0.00,OVC,,0.07,WeatherDisplay:10.37,2013-03-07 23:35:00,
2013-03-07 18:40:00,30.8,29.0,30.06,North,350,1.0,4.0,93,0.00,OVC,,0.07,WeatherDisplay:10.37,2013-03-07 23:40:00,
2013-03-07 18:45:00,30.8,29.0,30.06,North,3,1.0,4.0,93,0.00,OVC,,0.07,WeatherDisplay:10.37,2013-03-07 23:45:00,
2013-03-07 18:50:00,30.8,29.0,30.06,North,356,2.0,5.0,93,0.00,-SN,,0.07,WeatherDisplay:10.37,2013-03-07 23:50:00,
2013-03-07 18:55:00,30.9,29.1,30.06,NNW,339,1.0,6.0,93,0.00,-SN,,0.07,WeatherDisplay:10.37,2013-03-07 23:55:00,
2013-03-07 19:00:00,30.9,29.1,30.06,NNW,331,2.0,3.0,93,0.00,-SN,,0.07,WeatherDisplay:10.37,2013-03-08 00:00:00,
2013-03-07 19:05:00,30.9,28.9,30.06,NNW,345,1.0,6.0,92,0.00,-SN,,0.07,WeatherDisplay:10.37,2013-03-08 00:05:00,
2013-03-07 19:10:00,30.9,28.9,30.06,North,349,2.0,4.0,92,0.00,-SN,,0.07,WeatherDisplay:10.37,2013-03-08 00:10:00,
2013-03-07 19:15:00,30.9,28.9,30.06,NNW,344,2.0,6.0,92,0.00,-SN,,0.07,WeatherDisplay:10.37,2013-03-08 00:15:00,
2013-03-07 19:25:00,30.9,28.9,30.06,NNW,333,1.0,5.0,92,0.00,OVC,,0.07,WeatherDisplay:10.37,2013-03-08 00:25:00,
2013-03-07 19:30:00,31.0,28.7,30.06,North,351,2.0,6.0,91,0.00,OVC,,0.07,WeatherDisplay:10.37,2013-03-08 00:30:00,
2013-03-07 19:35:00,31.0,28.7,30.06,North,356,1.0,5.0,91,0.00,OVC,,0.07,WeatherDisplay:10.37,2013-03-08 00:35:00,
2013-03-07 19:40:00,31.0,28.7,30.06,NNW,341,1.0,4.0,91,0.00,OVC,,0.07,WeatherDisplay:10.37,2013-03-08 00:40:00,
2013-03-07 19:50:00,31.0,28.7,30.06,NNW,347,2.0,5.0,91,0.00,OVC,,0.07,WeatherDisplay:10.37,2013-03-08 00:50:00,
2013-03-07 19:55:00,31.0,28.7,30.06,North,349,2.0,5.0,91,0.00,OVC,,0.07,WeatherDisplay:10.37,2013-03-08 00:55:00,
2013-03-07 20:00:00,31.0,28.7,30.06,North,6,2.0,8.0,91,0.00,OVC,,0.07,WeatherDisplay:10.37,2013-03-08 01:00:00,
2013-03-07 20:05:00,30.9,28.6,30.06,North,3,2.0,6.0,91,0.00,-SN,,0.07,WeatherDisplay:10.37,2013-03-08 01:05:00,
2013-03-07 20:10:00,30.9,28.6,30.06,North,358,1.0,8.0,91,0.00,-SN,,0.07,WeatherDisplay:10.37,2013-03-08 01:10:00,
2013-03-07 20:20:00,30.8,28.8,30.06,North,354,1.0,4.0,92,0.00,-SN,,0.07,WeatherDisplay:10.37,2013-03-08 01:20:00,
2013-03-07 20:25:00,30.7,28.7,30.06,North,2,1.0,6.0,92,0.00,-SN,,0.07,WeatherDisplay:10.37,2013-03-08 01:25:00,
2013-03-07 20:30:00,30.7,28.7,30.05,North,359,1.0,4.0,92,0.00,-SN,,0.07,WeatherDisplay:10.37,2013-03-08 01:30:00,
2013-03-07 20:35:00,30.6,28.6,30.05,North,6,2.0,7.0,92,0.00,-SN,,0.07,WeatherDisplay:10.37,2013-03-08 01:35:00,
2013-03-07 20:45:00,30.5,28.7,30.05,North,350,0.0,6.0,93,0.00,-SN,,0.07,WeatherDisplay:10.37,2013-03-08 01:45:00,
2013-03-07 20:50:00,30.5,28.7,30.05,NNW,343,2.0,5.0,93,0.00,-SN,,0.07,WeatherDisplay:10.37,2013-03-08 01:50:00,
2013-03-07 20:55:00,30.4,28.6,30.05,North,351,1.0,5.0,93,0.00,-SN,,0.07,WeatherDisplay:10.37,2013-03-08 01:55:00,
2013-03-07 21:00:00,30.3,28.5,30.05,NNW,347,1.0,5.0,93,0.00,-SN,,0.07,WeatherDisplay:10.37,2013-03-08 02:00:00,
2013-03-07 21:05:00,30.3,28.8,30.05,North,359,0.0,5.0,94,0.00,-SN,,0.07,WeatherDisplay:10.37,2013-03-08 02:05:00,
2013-03-07 21:10:00,30.3,28.8,30.05,NNE,12,0.0,4.0,94,0.00,-SN,,0.07,WeatherDisplay:10.37,2013-03-08 02:10:00,
2013-03-07 21:15:00,30.3,28.8,30.05,North,353,1.0,5.0,94,0.01,-SN,,0.08,WeatherDisplay:10.37,2013-03-08 02:15:00,
2013-03-07 21:20:00,30.2,28.7,30.05,North,349,1.0,5.0,94,0.00,-SN,,0.08,WeatherDisplay:10.37,2013-03-08 02:20:00,
2013-03-07 21:25:00,30.2,28.7,30.04,NNW,348,0.0,3.0,94,0.01,-SN,,0.09,WeatherDisplay:10.37,2013-03-08 02:25:00,
2013-03-07 21:30:00,30.3,28.8,30.04,North,352,1.0,4.0,94,0.01,-SN,,0.10,WeatherDisplay:10.37,2013-03-08 02:30:00,
2013-03-07 21:35:00,30.3,28.8,30.04,North,358,2.0,4.0,94,0.01,-SN,,0.11,WeatherDisplay:10.37,2013-03-08 02:35:00,
2013-03-07 21:40:00,30.4,28.9,30.04,North,3,1.0,5.0,94,0.01,-SN,,0.12,WeatherDisplay:10.37,2013-03-08 02:40:00,
2013-03-07 21:45:00,30.5,29.0,30.04,North,352,1.0,5.0,94,0.01,-SN,,0.13,WeatherDisplay:10.37,2013-03-08 02:45:00,
2013-03-07 21:50:00,30.6,28.8,30.03,NNW,335,2.0,4.0,93,0.01,-SN,,0.14,WeatherDisplay:10.37,2013-03-08 02:50:00,
2013-03-07 21:55:00,30.7,28.9,30.03,North,352,1.0,7.0,93,0.01,-SN,,0.15,WeatherDisplay:10.37,2013-03-08 02:55:00,
2013-03-07 22:00:00,30.8,29.0,30.03,North,357,2.0,4.0,93,0.01,-SN,,0.16,WeatherDisplay:10.37,2013-03-08 03:00:00,
2013-03-07 22:05:00,30.8,29.0,30.03,North,355,1.0,4.0,93,0.01,-SN,,0.17,WeatherDisplay:10.37,2013-03-08 03:05:00,
2013-03-07 22:10:00,30.9,29.1,30.03,North,353,1.0,4.0,93,0.01,-SN,,0.18,WeatherDisplay:10.37,2013-03-08 03:10:00,
2013-03-07 22:15:00,30.9,28.9,30.03,North,353,2.0,5.0,92,0.00,-SN,,0.18,WeatherDisplay:10.37,2013-03-08 03:15:00,
2013-03-07 22:20:00,30.9,28.9,30.03,North,359,1.0,4.0,92,0.01,-SN,,0.19,WeatherDisplay:10.37,2013-03-08 03:20:00,
2013-03-07 22:25:00,30.9,28.9,30.03,North,350,0.0,3.0,92,0.00,-SN,,0.19,WeatherDisplay:10.37,2013-03-08 03:25:00,
2013-03-07 22:30:00,31.0,28.9,30.03,NNW,341,0.0,3.0,92,0.01,-SN,,0.20,WeatherDisplay:10.37,2013-03-08 03:30:00,
2013-03-07 22:35:00,31.0,28.9,30.03,NNW,339,1.0,6.0,92,0.00,-SN,,0.20,WeatherDisplay:10.37,2013-03-08 03:35:00,
2013-03-07 22:40:00,31.0,28.9,30.03,NNW,342,0.0,4.0,92,0.00,-SN,,0.20,WeatherDisplay:10.37,2013-03-08 03:40:00,
2013-03-07 22:45:00,31.0,28.9,30.03,NNW,347,1.0,4.0,92,0.01,-SN,,0.21,WeatherDisplay:10.37,2013-03-08 03:45:00,
2013-03-07 22:50:00,31.1,29.0,30.03,North,2,1.0,6.0,92,0.00,-SN,,0.21,WeatherDisplay:10.37,2013-03-08 03:50:00,
2013-03-07 22:55:00,31.1,29.0,30.02,North,356,1.0,6.0,92,0.00,-SN,,0.21,WeatherDisplay:10.37,2013-03-08 03:55:00,
2013-03-07 23:00:00,31.1,29.0,30.02,North,351,1.0,6.0,92,0.01,-SN,,0.22,WeatherDisplay:10.37,2013-03-08 04:00:00,
2013-03-07 23:05:00,31.1,29.0,30.02,NNW,345,1.0,5.0,92,0.00,-SN,,0.22,WeatherDisplay:10.37,2013-03-08 04:05:00,
2013-03-07 23:10:00,31.0,29.0,30.02,North,355,0.0,3.0,92,0.01,-SN,,0.23,WeatherDisplay:10.37,2013-03-08 04:10:00,
2013-03-07 23:15:00,31.0,28.9,30.02,NNE,14,2.0,6.0,92,0.00,-SN,,0.23,WeatherDisplay:10.37,2013-03-08 04:15:00,
2013-03-07 23:20:00,31.0,28.9,30.02,North,2,1.0,4.0,92,0.00,-SN,,0.23,WeatherDisplay:10.37,2013-03-08 04:20:00,
2013-03-07 23:25:00,31.0,28.9,30.02,North,349,0.0,4.0,92,0.00,-SN,,0.23,WeatherDisplay:10.37,2013-03-08 04:25:00,
2013-03-07 23:30:00,31.0,28.9,30.02,North,351,1.0,5.0,92,0.00,-SN,,0.23,WeatherDisplay:10.37,2013-03-08 04:30:00,
2013-03-07 23:35:00,31.0,28.9,30.02,North,350,3.0,7.0,92,0.00,-SN,,0.23,WeatherDisplay:10.37,2013-03-08 04:35:00,
2013-03-07 23:40:00,31.0,28.9,30.02,North,358,1.0,3.0,92,0.01,-SN,,0.24,WeatherDisplay:10.37,2013-03-08 04:40:00,
2013-03-07 23:45:00,31.0,28.9,30.02,North,2,0.0,0.0,92,0.00,-SN,,0.24,WeatherDisplay:10.37,2013-03-08 04:45:00,
2013-03-07 23:50:00,31.1,29.0,30.02,North,8,0.0,0.0,92,0.00,-SN,,0.24,WeatherDisplay:10.37,2013-03-08 04:50:00,
2013-03-07 23:55:00,31.1,29.0,30.01,North,5,3.0,5.0,92,0.00,-SN,,0.24,WeatherDisplay:10.37,2013-03-08 04:55:00,